Waukesha, WI

11:59 AM CST on January 19, 2018 (GMT -0600)
Waukesha County

Weather History for KUES - December, 2011

Change the Weather History Date:

Saturday, December 3, 2011

  Actual Average Record
Temperature  
Mean Temperature 38 °F -  
Max Temperature 44 °F 35 °F 64 °F (1998)
Min Temperature 32 °F 20 °F -1 °F (1985)
Degree Days  
Heating Degree Days 27    
Moisture  
Dew Point 38 °F    
Average Humidity 94    
Maximum Humidity 100    
Minimum Humidity 87    
Precipitation  
Precipitation 0.13 in - - ()
Sea Level Pressure  
Sea Level Pressure 30.09 in    
Wind  
Wind Speed 9 mph (South)    
Max Wind Speed 14 mph    
Max Gust Speed 25 mph    
Visibility 7 miles    
Events Rain    
Averages and records for this station are not official NWS values.
T = Trace of Precipitation, MM = Missing Value Source: NWS Daily Summary

Daily Weather History Graph

Daily Weather History Graph

Search for Another Location

Airport or City:

Trip Planner

Search our weather history database for the weather conditions in past years. The results will help you decide how hot, cold, wet, or windy it might be!

Date:

Astronomy

Dec. 03, 2011 Rise Set
Actual Time 7:06 AM CST 4:18 PM CST
Civil Twilight 6:34 AM CST 4:50 PM CST
Nautical Twilight 5:59 AM CST 5:26 PM CST
Astronomical Twilight 5:24 AM CST 6:00 PM CST
Moon 12:31 PM CST (12/3) 12:25 AM CST (12/3)
Length of Visible Light 10h 16m
Length of Day
9h 12m
Waxing Gibbous, 63% of the Moon is Illuminated
Dec 3
Waxing Gibbous
Dec 10
Full
Dec 17
Last Quarter
Dec 24
New
Jan 1
First Quarter

Hourly Weather History & Observations

Time (CST) Temp. Windchill Dew Point Humidity Pressure Visibility Wind Dir Wind Speed Gust Speed Precip Events Conditions
12:15 AM 32.0 °F 24.2 °F 30.2 °F 93% 30.29 in 10.0 mi South 9.2 mph - N/A   Mostly Cloudy
12:35 AM 32.0 °F 25.6 °F 30.2 °F 93% 30.28 in 10.0 mi SSE 6.9 mph - N/A   Scattered Clouds
12:55 AM 32.0 °F 26.4 °F 30.2 °F 93% 30.27 in 10.0 mi SSE 5.8 mph - N/A   Scattered Clouds
1:15 AM 32.0 °F 26.4 °F 30.2 °F 93% 30.25 in 7.0 mi SSE 5.8 mph - N/A   Mostly Cloudy
1:35 AM 32.0 °F 24.8 °F 30.2 °F 93% 30.24 in 7.0 mi SSE 8.1 mph - N/A   Overcast
1:55 AM 32.0 °F 24.8 °F 32.0 °F 100% 30.24 in 7.0 mi South 8.1 mph - N/A   Overcast
2:15 AM 33.8 °F 27.7 °F 32.0 °F 93% 30.24 in 7.0 mi South 6.9 mph - N/A Rain Rain
2:35 AM 33.8 °F 27.0 °F 32.0 °F 93% 30.23 in 7.0 mi South 8.1 mph - N/A   Light Drizzle
2:55 AM 33.8 °F 27.7 °F 32.0 °F 93% 30.22 in 7.0 mi South 6.9 mph - N/A   Overcast
3:15 AM 33.8 °F 27.7 °F 32.0 °F 93% 30.21 in 7.0 mi South 6.9 mph - N/A   Overcast
3:35 AM 33.8 °F 28.6 °F 32.0 °F 93% 30.21 in 7.0 mi South 5.8 mph - N/A   Overcast
3:55 AM 33.8 °F 27.7 °F 32.0 °F 93% 30.20 in 5.0 mi South 6.9 mph - N/A Rain Light Rain
4:15 AM 33.8 °F 27.7 °F 32.0 °F 93% 30.20 in 4.0 mi South 6.9 mph - N/A Rain Rain
4:35 AM 33.8 °F 27.0 °F 33.8 °F 100% 30.20 in 4.0 mi South 8.1 mph - 0.01 in Rain Light Rain
6:45 AM 37.4 °F 32.1 °F 37.4 °F 100% 30.20 in 3.0 mi SSW 6.9 mph - N/A Rain Light Rain
7:05 AM 37.4 °F 30.3 °F 37.4 °F 100% 30.20 in 1.0 mi SSW 10.4 mph - N/A Rain Rain
7:45 AM 39.2 °F 33.0 °F 39.2 °F 100% 30.19 in 1.0 mi South 9.2 mph - N/A Rain Light Rain
8:45 AM 39.2 °F 31.2 °F 39.2 °F 100% 30.20 in 1.0 mi SSW 13.8 mph - N/A Rain Light Rain
9:45 AM 41.0 °F 33.9 °F 39.2 °F 93% 30.20 in 2.0 mi SSW 12.7 mph - N/A Rain Light Rain
10:45 AM 42.8 °F 36.2 °F 41.0 °F 93% 30.20 in 7.0 mi SSW 12.7 mph - N/A Rain Light Rain
11:45 AM 42.8 °F 36.6 °F 42.8 °F 100% 30.18 in 7.0 mi SW 11.5 mph - N/A Rain Light Rain
12:45 PM 42.8 °F 36.6 °F 42.8 °F 100% 30.15 in 5.0 mi SSW 11.5 mph - N/A Rain Light Rain
2:05 PM 44.6 °F 41.4 °F 44.6 °F 100% 30.08 in 7.0 mi South 5.8 mph - N/A   Mostly Cloudy
2:45 PM 44.6 °F 40.7 °F 44.6 °F 100% 30.07 in 10.0 mi South 6.9 mph - N/A   Mostly Cloudy
3:45 PM 44.6 °F 41.4 °F 42.8 °F 93% 30.04 in 10.0 mi SSE 5.8 mph - N/A   Scattered Clouds
4:25 PM 42.8 °F 37.0 °F 42.8 °F 100% 30.04 in 10.0 mi SSE 10.4 mph - N/A   Mostly Cloudy
4:45 PM 42.8 °F 36.6 °F 42.8 °F 100% 30.04 in 10.0 mi SE 11.5 mph - N/A   Overcast
5:30 PM 42.8 °F 38.0 °F 41.0 °F 93% 30.02 in 7.0 mi SE 8.1 mph - N/A   Scattered Clouds
5:45 PM 42.8 °F 38.0 °F 41.0 °F 93% 30.02 in 7.0 mi SSE 8.1 mph - N/A   Clear
6:45 PM 42.8 °F 36.6 °F 39.2 °F 87% 30.00 in 10.0 mi SSE 11.5 mph - N/A   Scattered Clouds
7:45 PM 42.8 °F 38.6 °F 39.2 °F 87% 29.98 in 7.0 mi South 6.9 mph - N/A Rain Light Rain
8:15 PM 41.0 °F 35.8 °F 39.2 °F 93% 29.95 in 7.0 mi SSE 8.1 mph - 0.01 in Rain Light Rain
8:35 PM 41.0 °F 34.7 °F 39.2 °F 93% 29.94 in 10.0 mi South 10.4 mph 17.3 mph 0.01 in   Light Drizzle
8:45 PM 42.8 °F 36.6 °F 39.2 °F 87% 29.92 in 10.0 mi South 11.5 mph - N/A   Overcast
8:55 PM 42.8 °F 36.2 °F 39.2 °F 87% 29.91 in 10.0 mi South 12.7 mph 16.1 mph 0.01 in   Overcast
9:15 PM 42.8 °F 37.0 °F 41.0 °F 93% 29.91 in 10.0 mi South 10.4 mph 18.4 mph N/A   Light Drizzle
9:35 PM 42.8 °F 35.8 °F 41.0 °F 93% 29.90 in 7.0 mi South 13.8 mph 20.7 mph N/A Rain Light Rain
9:55 PM 42.8 °F 38.0 °F 41.0 °F 93% 29.89 in 7.0 mi South 8.1 mph - 0.01 in Rain Rain
10:15 PM 42.8 °F 37.5 °F 41.0 °F 93% 29.87 in 5.0 mi South 9.2 mph 16.1 mph 0.04 in Rain Rain
10:35 PM 42.8 °F 37.0 °F 41.0 °F 93% 29.86 in 7.0 mi South 10.4 mph 16.1 mph 0.08 in Rain Rain
11:35 PM 44.6 °F 38.1 °F 41.0 °F 87% 29.84 in 10.0 mi South 13.8 mph 25.3 mph 0.02 in Rain Light Rain
11:55 PM 42.8 °F 35.8 °F 42.8 °F 100% 29.83 in 10.0 mi South 13.8 mph 24.2 mph 0.02 in Rain Rain